Jackson, TN

5:31 AM CST on December 18, 2017 (GMT -0600)
McKellar-Sipes Regional

Weather History for KMKL - February, 2012

Change the Weather History Date:

Saturday, February 4, 2012

  Actual Average Record
Temperature  
Mean Temperature 55 °F 40 °F  
Max Temperature 61 °F 50 °F 76 °F (2008)
Min Temperature 49 °F 29 °F 0 °F (1996)
Degree Days  
Heating Degree Days 10 25  
Month to date heating degree days 40 102  
Since 1 July heating degree days 1939 2351  
Cooling Degree Days 0 0  
Month to date cooling degree days 0 0  
Year to date cooling degree days 0 0  
Growing Degree Days 4 (Base 50)    
Moisture  
Dew Point 55 °F    
Average Humidity 90    
Maximum Humidity 100    
Minimum Humidity 80    
Precipitation  
Precipitation 0.43 in 0.15 in 2.58 in (2014)
Month to date precipitation 0.64 0.60  
Year to date precipitation 3.87 4.67  
Snow  
Snow 0.00 in - - ()
Month to date snowfall 0.0  
Snow Depth 0.00 in    
Sea Level Pressure  
Sea Level Pressure 30.07 in    
Wind  
Wind Speed 8 mph (SSW)    
Max Wind Speed 22 mph    
Max Gust Speed 29 mph    
Visibility 7 miles    
Events Rain    
T = Trace of Precipitation, MM = Missing Value Source: NWS Daily Summary

Daily Weather History Graph

Daily Weather History Graph

Search for Another Location

Airport or City:

Trip Planner

Search our weather history database for the weather conditions in past years. The results will help you decide how hot, cold, wet, or windy it might be!

Date:

Astronomy

Feb. 04, 2012 Rise Set
Actual Time 6:53 AM CST 5:26 PM CST
Civil Twilight 6:26 AM CST 5:52 PM CST
Nautical Twilight 5:56 AM CST 6:23 PM CST
Astronomical Twilight 5:26 AM CST 6:53 PM CST
Moon 2:27 PM CST (2/4) 4:14 AM CST (2/4)
Length of Visible Light 11h 25m
Length of Day
10h 32m
Waxing Gibbous, 89% of the Moon is Illuminated
Feb 4
Waxing Gibbous
Feb 7
Full
Feb 14
Last Quarter
Feb 21
New
Feb 29
First Quarter

Hourly Weather History & Observations

Time (CST) Temp. Dew Point Humidity Pressure Visibility Wind Dir Wind Speed Gust Speed Precip Events Conditions
12:32 AM 57.2 °F 51.8 °F 82% 30.12 in 10.0 mi SSE 9.2 mph - N/A   Overcast
12:53 AM 57.0 °F 51.1 °F 81% 30.11 in 10.0 mi SSE 8.1 mph - N/A   Overcast
1:14 AM 57.2 °F 51.8 °F 82% 30.12 in 10.0 mi South 8.1 mph - N/A   Overcast
1:53 AM 57.0 °F 51.1 °F 81% 30.10 in 10.0 mi SSE 10.4 mph - N/A   Overcast
2:53 AM 57.0 °F 51.1 °F 81% 30.09 in 10.0 mi South 10.4 mph 19.6 mph N/A   Overcast
3:53 AM 57.0 °F 52.0 °F 83% 30.07 in 10.0 mi SSE 9.2 mph 16.1 mph N/A   Overcast
4:07 AM 57.2 °F 51.8 °F 82% 30.07 in 10.0 mi South 8.1 mph - N/A   Overcast
4:53 AM 57.0 °F 52.0 °F 83% 30.09 in 10.0 mi South 9.2 mph - N/A   Overcast
5:15 AM 55.4 °F 53.6 °F 94% 30.11 in 3.0 mi West 5.8 mph 18.4 mph 0.06 in Rain Heavy Rain
5:22 AM 55.4 °F 53.6 °F 94% 30.11 in 4.0 mi WSW 3.5 mph - 0.08 in Rain Rain
5:32 AM 55.4 °F 53.6 °F 94% 30.10 in 2.5 mi Calm Calm - 0.14 in Rain Rain
5:39 AM 55.4 °F 53.6 °F 94% 30.11 in 4.0 mi South 4.6 mph - 0.17 in Rain Rain
5:53 AM 55.0 °F 54.0 °F 96% 30.09 in 7.0 mi SSE 4.6 mph - 0.17 in Rain Light Rain
6:53 AM 55.0 °F 54.0 °F 96% 30.09 in 5.0 mi SSE 5.8 mph - 0.09 in Rain Rain
7:53 AM 55.9 °F 55.0 °F 97% 30.06 in 7.0 mi SSE 8.1 mph - 0.07 in Rain Light Rain
8:33 AM 57.2 °F 55.4 °F 94% 30.05 in 10.0 mi South 8.1 mph 16.1 mph 0.03 in Rain Light Rain
8:53 AM 57.0 °F 55.0 °F 93% 30.07 in 10.0 mi South 10.4 mph - 0.03 in   Mostly Cloudy
9:00 AM 57.2 °F 55.4 °F 94% 30.08 in 10.0 mi SSW 6.9 mph 16.1 mph N/A   Mostly Cloudy
9:43 AM 57.2 °F 55.4 °F 94% 30.07 in 10.0 mi South 6.9 mph - 0.01 in Rain Light Rain
9:53 AM 57.9 °F 55.9 °F 93% 30.06 in 10.0 mi South 9.2 mph - 0.01 in   Overcast
10:53 AM 59.0 °F 57.0 °F 93% 30.06 in 10.0 mi South 11.5 mph - N/A   Scattered Clouds
11:53 AM 60.1 °F 57.0 °F 90% 30.04 in 10.0 mi SSW 10.4 mph - N/A   Partly Cloudy
12:37 PM 60.8 °F 57.2 °F 88% 30.02 in 10.0 mi South 8.1 mph - N/A   Mostly Cloudy
12:53 PM 61.0 °F 57.9 °F 90% 30.02 in 10.0 mi SSW 10.4 mph - N/A   Mostly Cloudy
1:53 PM 61.0 °F 57.9 °F 90% 30.02 in 10.0 mi SSW 10.4 mph - N/A   Overcast
2:53 PM 61.0 °F 57.9 °F 90% 30.01 in 10.0 mi SSW 5.8 mph - N/A   Overcast
3:05 PM 60.8 °F 57.2 °F 88% 30.02 in 10.0 mi SW 5.8 mph - N/A   Overcast
3:53 PM 61.0 °F 57.9 °F 90% 30.02 in 10.0 mi SW 3.5 mph - N/A   Overcast
4:25 PM 60.8 °F 57.2 °F 88% 30.02 in 2.0 mi SW 5.8 mph - N/A   Overcast
4:37 PM 60.8 °F 59.0 °F 94% 30.02 in 1.5 mi SW 4.6 mph - 0.00 in Rain Light Rain
4:53 PM 60.1 °F 59.0 °F 96% 30.02 in 2.0 mi SW 4.6 mph - 0.00 in   Overcast
5:08 PM 60.8 °F 59.0 °F 94% 30.02 in 2.0 mi SW 4.6 mph - N/A   Overcast
5:23 PM 60.8 °F 57.2 °F 88% 30.03 in 5.0 mi SW 6.9 mph - N/A   Overcast
5:53 PM 59.0 °F 57.9 °F 96% 30.03 in 2.0 mi WSW 5.8 mph - 0.01 in Rain Light Rain
6:00 PM 59.0 °F 57.2 °F 94% 30.03 in 3.0 mi West 5.8 mph - 0.01 in Rain Light Rain
6:53 PM 57.9 °F 57.0 °F 97% 30.05 in 3.0 mi NW 6.9 mph - 0.03 in   Overcast
6:58 PM 57.2 °F 57.2 °F 100% 30.05 in 2.0 mi NW 6.9 mph - 0.00 in Rain Light Rain
7:53 PM 55.9 °F 55.0 °F 97% 30.07 in 2.0 mi NW 9.2 mph - 0.02 in   Overcast
8:00 PM 55.4 °F 55.4 °F 100% 30.07 in 8.0 mi NW 10.4 mph - N/A   Overcast
8:42 PM 55.4 °F 53.6 °F 94% 30.08 in 10.0 mi WNW 10.4 mph - 0.00 in   Overcast
8:53 PM 54.0 °F 52.0 °F 93% 30.09 in 10.0 mi NW 8.1 mph - 0.00 in   Overcast
9:53 PM 51.1 °F 48.9 °F 92% 30.09 in 10.0 mi WNW 9.2 mph - N/A   Scattered Clouds
10:53 PM 48.9 °F 45.0 °F 86% 30.11 in 10.0 mi WNW 9.2 mph - N/A   Partly Cloudy
11:53 PM 48.9 °F 43.0 °F 80% 30.11 in 10.0 mi NW 9.2 mph - N/A   Overcast